This demonstration page uses our WeatherBlox Daily Observations layout. Learn more.

Hourly Observations for December 5, 2019

Temp ( °F °C ) Dew Point ( °F °C ) Humidity (%) Winds ( mph kmh ) Pressure ( in mb ) Visibility ( mi km ) Precip ( " mm )
12:15 am 00:15 Mostly Cloudy 37 3 36 2 93 93 W 8 13 29.68 1005 10 16.0934 0 0
12:35 am 00:35 Mostly Cloudy 37 3 34 1 87 87 WNW 9 15 29.69 1005 10 16.0934 0 0
12:55 am 00:55 Cloudy 37 3 36 2 93 93 WNW 12 19 29.69 1005 10 16.0934 0 0
1:15 am 01:15 Cloudy 37 3 34 1 87 87 WNW 21 33 29.7 1006 10 16.0934 0 0
1:35 am 01:35 Cloudy 37 3 34 1 87 87 WNW 18 30 29.7 1006 10 16.0934 0 0
1:55 am 01:55 Partly Cloudy 37 3 32 0 81 81 WNW 23 37 29.7 1006 10 16.0934 0 0
2:15 am 02:15 Clear 37 3 32 0 81 81 WNW 18 30 29.72 1006 10 16.0934 0 0
2:35 am 02:35 Clear 37 3 32 0 81 81 WNW 21 33 29.72 1006 10 16.0934 0 0
2:55 am 02:55 Clear 37 3 32 0 81 81 NW 21 33 29.74 1007 10 16.0934 0 0
3:15 am 03:15 Partly Cloudy 37 3 32 0 81 81 NW 20 31 29.75 1007 10 16.0934 0 0
3:35 am 03:35 Mostly Cloudy 37 3 32 0 81 81 WNW 21 33 29.76 1008 10 16.0934 0 0
3:55 am 03:55 Mostly Cloudy 37 3 30 -1 75 75 WNW 20 31 29.78 1008 10 16.0934 0 0
4:15 am 04:15 Mostly Cloudy 37 3 30 -1 75 75 WNW 17 28 29.79 1009 10 16.0934 0 0
4:35 am 04:35 Partly Cloudy 37 3 30 -1 75 75 WNW 15 24 29.79 1009 10 16.0934 0 0
4:55 am 04:55 Clear 37 3 28 -2 70 70 WNW 15 24 29.81 1009 10 16.0934 0 0
5:15 am 05:15 Mostly Cloudy 37 3 30 -1 75 75 WNW 14 22 29.83 1010 10 16.0934 0 0
5:35 am 05:35 Cloudy 37 3 30 -1 75 75 WNW 10 17 29.85 1011 10 16.0934 0 0
5:55 am 05:55 Mostly Cloudy 36 2 30 -1 81 81 WNW 13 20 29.87 1011 10 16.0934 0 0
6:15 am 06:15 Partly Cloudy 36 2 28 -2 75 75 WNW 8 13 29.87 1011 10 16.0934 0 0
6:35 am 06:35 Mostly Cloudy 36 2 28 -2 75 75 WNW 6 9 29.89 1012 10 16.0934 0 0
6:55 am 06:55 Cloudy 36 2 30 -1 81 81 NW 9 15 29.9 1012 10 16.0934 0 0
7:15 am 07:15 Cloudy 37 3 28 -2 70 70 NW 15 24 29.92 1013 10 16.0934 0 0
7:35 am 07:35 Cloudy 37 3 28 -2 70 70 NW 15 24 29.93 1013 10 16.0934 0 0
7:55 am 07:55 Cloudy 37 3 28 -2 70 70 WNW 20 31 29.93 1013 10 16.0934 0 0
8:15 am 08:15 Partly Cloudy 37 3 28 -2 70 70 WNW 14 22 29.94 1014 10 16.0934 0 0
8:35 am 08:35 Sunny 39 4 28 -2 65 65 NW 17 28 29.93 1013 10 16.0934 0 0
8:55 am 08:55 Sunny 39 4 28 -2 65 65 NW 22 35 29.93 1013 10 16.0934 0 0
9:15 am 09:15 Sunny 41 5 28 -2 61 61 NW 22 35 29.94 1014 10 16.0934 0 0
9:35 am 09:35 Sunny 41 5 28 -2 61 61 NW 25 41 29.95 1014 10 16.0934 0 0
9:55 am 09:55 Sunny 41 5 28 -2 61 61 NW 22 35 29.95 1014 10 16.0934 0 0
10:15 am 10:15 Sunny 41 5 28 -2 61 61 WNW 23 37 29.96 1015 10 16.0934 0 0
10:35 am 10:35 Sunny 41 5 28 -2 61 61 NW 28 44 29.97 1015 10 16.0934 0 0
10:55 am 10:55 Sunny 43 6 28 -2 57 57 WNW 25 41 29.97 1015 10 16.0934 0 0
11:15 am 11:15 Sunny 43 6 27 -3 53 53 NW 25 41 29.98 1015 10 16.0934 0 0
11:35 am 11:35 Sunny 43 6 27 -3 53 53 NW 23 37 29.99 1016 10 16.0934 0 0
11:55 am 11:55 Sunny N/A N/A N/A NW 20 31 N/A 10 16.0934 0 0
12:15 pm 12:15 Sunny 43 6 27 -3 53 53 WNW 17 28 29.99 1016 10 16.0934 0 0
12:35 pm 12:35 Sunny 45 7 27 -3 49 49 NW 17 28 29.99 1016 10 16.0934 0 0
12:55 pm 12:55 Partly Cloudy 45 7 27 -3 49 49 NW 16 26 29.99 1016 10 16.0934 0 0
1:15 pm 13:15 Partly Cloudy 45 7 27 -3 49 49 NW 16 26 29.99 1016 10 16.0934 0 0
1:35 pm 13:35 Sunny 45 7 27 -3 49 49 NW 17 28 30 1016 10 16.0934 0 0
1:55 pm 13:55 Sunny 45 7 27 -3 49 49 WNW 18 30 30 1016 10 16.0934 0 0
2:15 pm 14:15 Sunny 45 7 27 -3 49 49 WNW 20 31 30.01 1016 10 16.0934 0 0
2:35 pm 14:35 Sunny 45 7 27 -3 49 49 WNW 16 26 30.01 1016 10 16.0934 0 0
2:55 pm 14:55 Sunny 45 7 27 -3 49 49 NW 17 28 30.03 1017 10 16.0934 0 0
3:15 pm 15:15 Sunny 45 7 25 -4 46 46 NW 12 19 30.04 1017 10 16.0934 0 0
3:35 pm 15:35 Sunny 45 7 27 -3 49 49 W 16 26 30.05 1018 10 16.0934 0 0
3:55 pm 15:55 Sunny 43 6 27 -3 53 53 WNW 16 26 30.06 1018 10 16.0934 0 0
4:15 pm 16:15 Sunny 43 6 27 -3 53 53 WNW 15 24 30.07 1018 10 16.0934 0 0
4:35 pm 16:35 Sunny 43 6 27 -3 53 53 WNW 14 22 30.06 1018 10 16.0934 0 0
4:55 pm 16:55 Clear 41 5 27 -3 57 57 WNW 9 15 30.07 1018 10 16.0934 0 0
5:15 pm 17:15 Clear 41 5 27 -3 57 57 WNW 9 15 30.09 1019 10 16.0934 0 0
5:35 pm 17:35 Clear 41 5 27 -3 57 57 WNW 7 11 30.1 1019 10 16.0934 0 0
5:55 pm 17:55 Clear 39 4 27 -3 61 61 WNW 3 6 30.12 1020 10 16.0934 0 0
6:15 pm 18:15 Clear 37 3 27 -3 65 65 Calm 30.12 1020 10 16.0934 0 0
6:35 pm 18:35 Clear 39 4 27 -3 61 61 Calm 30.13 1020 10 16.0934 0 0
6:55 pm 18:55 Clear 37 3 27 -3 65 65 W 3 6 30.13 1020 10 16.0934 0 0
7:15 pm 19:15 Clear 34 1 27 -3 75 75 WNW 5 7 30.14 1021 10 16.0934 0 0
7:35 pm 19:35 Clear 34 1 27 -3 75 75 WNW 5 7 30.14 1021 10 16.0934 0 0
7:55 pm 19:55 Clear 36 2 27 -3 70 70 NW 3 6 30.15 1021 10 16.0934 0 0
8:15 pm 20:15 Clear 34 1 27 -3 75 75 SE 3 6 30.16 1021 10 16.0934 0 0
8:35 pm 20:35 Clear 36 2 27 -3 70 70 Calm 30.16 1021 10 16.0934 0 0
8:55 pm 20:55 Clear 34 1 27 -3 75 75 Calm 30.17 1022 10 16.0934 0 0
9:15 pm 21:15 Clear 32 0 28 -2 87 87 Calm 30.17 1022 10 16.0934 0 0
9:35 pm 21:35 Clear 32 0 28 -2 87 87 Calm 30.18 1022 10 16.0934 0 0
9:55 pm 21:55 Clear 34 1 27 -3 75 75 Calm 30.18 1022 10 16.0934 0 0
10:15 pm 22:15 Clear 32 0 28 -2 87 87 WNW 5 7 30.18 1022 10 16.0934 0 0
10:35 pm 22:35 Clear 32 0 28 -2 87 87 Calm 30.18 1022 10 16.0934 0 0
10:55 pm 22:55 Clear 32 0 28 -2 87 87 Calm 30.19 1022 10 16.0934 0 0
11:15 pm 23:15 Clear 32 0 28 -2 87 87 Calm 30.19 1022 10 16.0934 0 0
11:35 pm 23:35 Clear 32 0 28 -2 87 87 WSW 3 6 30.2 1023 10 16.0934 0 0
11:55 pm 23:55 Clear 32 0 28 -2 87 87 Calm 30.2 1023 10 16.0934 0 0

Powered by AerisWeather